ONEWEB-0710, 55173

Orbit data source: Space-Track

ONEWEB-0710, 55173 is a payload satellite owned by One Web (NAA) (UK) in LEO that was launched on Tue, 10 Jan 2023 UTC via an FALCON 9 launch vehicle from the Air Force Eastern Test Range (AFETR). Payload-class satellites include a variety of spacecraft equipped with specific instruments for various scientific and technological missions. These include communications satellites like Starlink; space stations such as the ISS; scientific satellites like the Hubble; Earth observation satellites from companies like Planet Labs, Umbra, and HawkEye 360; GPS; miniature CubeSats for education and research; and military/defense satellites.

Loading next visibility...
Identifier
55173, 2023-004AK
Orbit
LEO
Country
Flag of UKUK
Related business
Manufacturer
One Web
Mission
Operational Commercial Communications
Bus & Motor
ARROW, Unknown motor
Mass
148 kg wet, ~140 kg dry
Launch date (UTC)
2023-01-10 (3 years ago)
Launch vehicle
FALCON 9
Launch site
Air Force Eastern Test Range (AFETR)
Object type
Payload
Rocket body
Debris
Shape & HBR
Trap Box + 2 Pan, 6.7 m
Radar Cross Section
3.464 m², Large (>1 m²)

Expand to show TLE details & history
Last TLE update: 2 days ago

TLE from 2 days ago
0 ONEWEB-0710
1 55173U 23004AK  26171.46903251 -.00000028  00000-0 -10549-3 0  9991
2 55173  87.9131   5.2125 0002016  86.9507 273.1855 13.17649949168011
Epoch: 2026-06-20T11:15Z
TLE epoch observation values (Epoch: 2026-06-20T11:15:24.408Z)
Latitude
-0.00006°
Longitude
-72.32241°
Altitude
1,196.524 km
Speed
7.256 km/s
True Right ascension
00h 20m 50s
True Declination
0° 00' 00"
Sunlit
Object was in daylight at epoch
Visualization orbit readout
Latitude
Unknown
Longitude
Unknown
Altitude
Unknown
Speed
Unknown
Apparent Right ascension
Unknown
Apparent Declination
Unknown
Sunlit
N/A
Visualization observer readout
Local Sidereal Time
00:37:44
Azimuth
Unknown
Elevation
Unknown
Doppler factor
Unknown
Orbital elements
Apogee altitude
1,192.344 km
Perigee altitude
1,189.293 km
Semi-major axis
7,568.955 km
Eccentricity
0.0002
Inclination
87.9131°
RAAN
5.2125°
Arg. of periapsis
86.9507°
True anomaly
273.16243°
Mean anomaly
273.1855°
Eccentric anomaly
273.17397°
Mean motion
3.29602 °/min
Orbital period
109.22 mins
BSTAR
-0.00010549
Loading maneuver chart data...
Computing Atmospheric mass density...
Loading historical data...
Loading historical data...
Loading historical data...
Loading historical data...
Loading historical data...
Loading historical data...
Loading historical data...

Documentation

Showing up to 5 results
|